loading
|

THOR ABLESTAR DEB, 416

Orbit data source: Space-Track

THOR ABLESTAR DEB, 416 is space debris in LEO originally from a launch on Thu, 29 Jun 1961 UTC launched from the Air Force Eastern Test Range (AFETR). Debris objects in space refer to the collection of defunct objects orbiting the Earth. Examples of debris include non-operational satellites, rocket bodies, and fragments generated from explosions, collisions, or faulty payload assembly.

Loading next visibility...
Loading greatness...
THOR ABLESTAR DEB details
Identifier
416, 1961-015ER
Orbit
LEO
Last TLE update11 hours ago
Origin
Flag of USUSAF SSD (US)
ManufacturerUnknown
Mission statusUnknown
MissionUnknown
Bus & MotorUnknown
MassUnknown
Launch date (UTC)
1961-06-29 (63 years ago)
Launch vehicleUnknown
Launch site
Air Force Eastern Test Range (AFETR)
Object type
Payload
Rocket body
Debris
Radar Cross SectionSmall (<0.1 m²)

Expand to show TLE details & history

TLE from 11 hours ago
0 THOR ABLESTAR DEB
1 00416U 61015ER  24258.83171302  .00001047  00000-0  57782-3 0  9994
2 00416  66.5184 121.8515 0082066 243.1052 116.1633 14.13776814241296
Epoch: 2024-09-14T19:57Z
Definitive object data (Epoch: 2024-09-14T19:57:40.004Z)
Latitude-0.00002°
Longitude-171.84897°
Altitude875.088 km
Speed7.402 km/s
True Right ascension08h 07m 24s
True Declination0° 00' 00"
Sunlit
Object was in daylight at TLE epoch
Predictive object data (real-time)
Latitude5.3078°
Longitude4.67291°
Altitude826.02 km
Speed7.452 km/s
Apparent Right ascension17h 03m 29s
Apparent Declination-29° 34' 56"
Sunlit
Object is in full shadow
Predictive observer data (real-time)
Local Sidereal Time23:37:04
Azimuth250.944° W
Elevation-24.466°
Doppler factor1
Orbital elements
Apogee904.161 km
Perigee785.608 km
Semi-major axis7,223.022 km
Eccentricity0.0082066
Inclination66.5184°
RAAN121.8515°
Arg. of periapsis243.1052°
True anomaly117.00352°
Mean anomaly116.1633°
Eccentric anomaly116.58379°
Mean motion3.53561 °/min
BSTAR0.00057782
Period101.82 mins
No data available

THOR ABLESTAR DEB Visibility forecast

Observer location: 39.9160978°, -105.1181434

THOR ABLESTAR DEB is not visible in the next 10 days
Span
Click to sort rows by Start time (UTC) header in descending order
Start Az.
Max El. time (UTC)
Max El. Az.
Max El.
End time (UTC)
End Az.